This is the latest recevied weather packets stored in our database for station/object KC3JUG-3. If no packets are shown the sender has not sent any weather packets the latest 10 day(s).
| Time | Temp. | Humidity | Pressure | Rain* | Wind** | Luminosity | Snow |
|---|---|---|---|---|---|---|---|
| 1777927562 | 21.11° C | 43% | 1011.2 hPa | 0 mm | - | - | - |
| 1777926348 | 21.67° C | 43% | 1011.4 hPa | 0 mm | - | - | - |
| 1777925750 | 21.67° C | 46% | 1011.5 hPa | 0 mm | - | - | - |
| 1777924546 | 21.11° C | 44% | 1011.6 hPa | 0 mm | - | - | - |
| 1777924247 | 21.11° C | 41% | 1011.7 hPa | 0 mm | - | - | - |
| 1777920946 | 20.56° C | 44% | 1012.2 hPa | 0 mm | - | - | - |
| 1777919454 | 20.56° C | 46% | 1012.5 hPa | 0 mm | - | - | - |
| 1777919146 | 20.56° C | 44% | 1012.6 hPa | 0 mm | - | - | - |
| 1777916755 | 19.44° C | 45% | 1013.2 hPa | 0 mm | - | - | - |
| 1777913745 | 18.33° C | 47% | 1013.8 hPa | 0 mm | - | - | - |
| 1777912848 | 18.33° C | 45% | 1014.1 hPa | 0 mm | - | - | - |
| 1777912547 | 18.33° C | 45% | 1014.1 hPa | 0 mm | - | - | - |
| 1777909563 | 16.67° C | 47% | 1014.7 hPa | 0 mm | - | - | - |
| 1777909002 | 16.67° C | 48% | 1014.9 hPa | 0 mm | - | - | - |
| 1777908348 | 16.67° C | 49% | 1015.1 hPa | 0 mm | - | - | - |
| 1777903547 | 14.44° C | 54% | 1015.3 hPa | 0 mm | - | - | - |
| 1777902648 | 13.89° C | 54% | 1015.2 hPa | 0 mm | - | - | - |
| 1777902354 | 13.89° C | 56% | 1015.3 hPa | 0 mm | - | - | - |
| 1777900246 | 12.78° C | 59% | 1015.4 hPa | 0 mm | - | - | - |
| 1777897847 | 11.67° C | 62% | 1015.6 hPa | 0 mm | - | - | - |
| 1777897248 | 11.11° C | 62% | 1015.5 hPa | 0 mm | - | - | - |
| 1777896650 | 11.11° C | 62% | 1015.5 hPa | 0 mm | - | - | - |
| 1777893946 | 9.44° C | 60% | 1015.7 hPa | 0 mm | - | - | - |
| 1777893045 | 8.89° C | 58% | 1015.7 hPa | 0 mm | - | - | - |
| 1777892148 | 8.89° C | 58% | 1015.7 hPa | 0 mm | - | - | - |
* Rain latest hour (hover to see other rain measurements)
** Current wind speed in m/s (hover to see current wind gust speed)